TimeCOT,TemperatureF,Dew PointF,Humidity,Sea Level PressureIn,VisibilityMPH,Wind Direction,Wind SpeedMPH,Gust SpeedMPH,PrecipitationIn,Events,Conditions,WindDirDegrees,DateUTC
12:00 AM,75.2,75.2,100,29.88,-9999.0,Calm,Calm,-,N/A,,Clear,0,2013-09-22 05:00:00
1:00 AM,75,74,95,29.87,12,Calm,Calm,,,,Scattered Clouds,,2013-09-22 06:00:00
1:00 AM,75.2,73.4,94,29.87,-9999.0,Calm,Calm,-,N/A,,Clear,0,2013-09-22 06:00:00
2:00 AM,75.2,73.4,94,29.86,-9999.0,Calm,Calm,-,N/A,,Clear,0,2013-09-22 07:00:00
3:00 AM,73.4,73.4,100,29.85,-9999.0,Calm,Calm,-,N/A,,Clear,0,2013-09-22 08:00:00
4:00 AM,74,73,95,29.86,12,Calm,Calm,,,,,,2013-09-22 09:00:00
4:00 AM,73.4,73.4,100,29.86,-9999.0,Calm,Calm,-,N/A,,Clear,0,2013-09-22 09:00:00
5:00 AM,73.4,73.4,100,29.87,-9999.0,Calm,Calm,-,N/A,,Clear,0,2013-09-22 10:00:00
6:00 AM,73.4,73.4,100,29.88,6.2,Calm,Calm,-,N/A,Fog,Shallow Fog,0,2013-09-22 11:00:00
7:00 AM,77,74,88,29.91,12,Calm,Calm,,,,Scattered Clouds,,2013-09-22 12:00:00
7:00 AM,77.0,73.4,89,29.90,6.2,Calm,Calm,-,N/A,,Partly Cloudy,0,2013-09-22 12:00:00
8:00 AM,82.4,77.0,84,29.91,6.2,Calm,Calm,-,N/A,,Partly Cloudy,0,2013-09-22 13:00:00
9:00 AM,86.0,77.0,74,29.94,-9999.0,Variable,2.3,-,N/A,,Clear,0,2013-09-22 14:00:00
10:00 AM,89,76,57,29.94,12,NE,2.2,,,,Scattered Clouds,40,2013-09-22 15:00:00
10:00 AM,89.6,75.2,62,29.93,-9999.0,Variable,2.3,-,N/A,,Clear,0,2013-09-22 15:00:00
11:00 AM,91.4,77.0,63,29.91,6.2,ENE,3.5,-,N/A,,Scattered Clouds,60,2013-09-22 16:00:00
12:00 PM,91.4,75.2,59,29.88,6.2,Variable,2.3,-,N/A,,Mostly Cloudy,0,2013-09-22 17:00:00
1:00 PM,94,76,47,29.86,12,Calm,Calm,,,,Mostly Cloudy,,2013-09-22 18:00:00
1:00 PM,93.2,75.2,56,29.86,6.2,Calm,Calm,-,N/A,,Mostly Cloudy,0,2013-09-22 18:00:00
2:00 PM,93.2,78.8,63,29.84,6.2,Calm,Calm,-,N/A,,Mostly Cloudy,0,2013-09-22 19:00:00
3:00 PM,93.2,78.8,63,29.80,6.2,ESE,3.5,-,N/A,,Mostly Cloudy,120,2013-09-22 20:00:00
4:00 PM,93,78,54,29.80,12,Calm,Calm,,,,Partly Cloudy,,2013-09-22 21:00:00
4:00 PM,93.2,78.8,63,29.80,6.2,Calm,Calm,-,N/A,,Scattered Clouds,0,2013-09-22 21:00:00
5:00 PM,91.4,80.6,71,29.80,6.2,Calm,Calm,-,N/A,,Partly Cloudy,0,2013-09-22 22:00:00
6:00 PM,84.2,80.6,89,29.81,6.2,Calm,Calm,-,N/A,,Partly Cloudy,0,2013-09-22 23:00:00
7:00 PM,81,79,90,29.84,12,Calm,Calm,,,,,,2013-09-23 00:00:00
7:00 PM,80.6,78.8,94,29.84,-9999.0,Calm,Calm,-,N/A,,Clear,0,2013-09-23 00:00:00
8:00 PM,80.6,77.0,89,29.83,-9999.0,Calm,Calm,-,N/A,,Clear,0,2013-09-23 01:00:00
9:00 PM,78.8,77.0,94,29.84,-9999.0,Calm,Calm,-,N/A,,Clear,0,2013-09-23 02:00:00
10:00 PM,79,74,80,29.87,12,Calm,Calm,,,,Scattered Clouds,,2013-09-23 03:00:00
10:00 PM,78.8,73.4,83,29.87,-9999.0,Calm,Calm,-,N/A,,Clear,0,2013-09-23 03:00:00
11:00 PM,78.8,75.2,89,29.88,-9999.0,Calm,Calm,-,N/A,,Clear,0,2013-09-23 04:00:00